Miscellaneous Local Product
Issued by NWS Hastings, NE

Home | Current Version | Previous Version | Graphics & Text | Print | Product List | Glossary On
Versions: 1 2 3 4 5 6 7 8 9 10 11 12 13 14 15 16 17 18 19 20 21 22 23 24 25 26 27 28 29 30 31 32 33 34 35 36 37 38 39 40 41 42 43 44 45 46 47 48 49 50
000
AXUS43 KGID 261602
MISGRI

GID CWA HOURLY WEATHER ROUNDUP
NATIONAL WEATHER SERVICE HASTINGS NE
1100 AM CDT THU MAY 26 2016

NOTE: "FAIR" INDICATES FEW OR NO CLOUDS BELOW 12,000 FEET WITH NO
SIGNIFICANT WEATHER AND/OR OBSTRUCTIONS TO VISIBILITY.

...SOUTH CENTRAL NEBRASKA...

CITY           SKY/WX    TMP DP  RH WIND       PRES   REMARKS
GRAND ISLAND   MOSUNNY   71  56  58 E13       29.89F
HASTINGS       SUNNY     70  58  65 E9        29.87F
KEARNEY        SUNNY     70  54  56 E10       29.89F
ORD            CLOUDY    66  53  63 E9        29.90R
YORK           MOSUNNY   70  59  68 E8        29.87F
AURORA         MOSUNNY   70  58  66 E7        29.89F
LEXINGTON      PTSUNNY   68  56  64 E10       29.91R
HOLDREGE       MOSUNNY   67  55  64 E13       29.88F
HEBRON         SUNNY     76  64  67 E7        29.84F

...NEBRASKA PANHANDLE...

CITY           SKY/WX    TMP DP  RH WIND       PRES   REMARKS
CHADRON        SUNNY     66  44  45 N8        29.92F
ALLIANCE       SUNNY     65  44  46 CALM      29.93S
SCOTTSBLUFF    SUNNY     64  42  44 W9        29.95F
SIDNEY         PTSUNNY   63  43  48 N10       29.96F

...WESTERN AND NORTH CENTRAL NEBRASKA...

CITY           SKY/WX    TMP DP  RH WIND       PRES   REMARKS
VALENTINE      PTSUNNY   69  46  43 S8        29.91F
AINSWORTH      CLOUDY    64  53  66 S8        29.93R
ONEILL         PTSUNNY   63  54  72 SE5       29.91F
BROKEN BOW     PTSUNNY   65  54  67 E7        29.93R
IMPERIAL       MOSUNNY   70  48  45 NE16      29.91F
NORTH PLATTE   PTSUNNY   70  51  51 NE13      29.92F
MCCOOK         CLOUDY    69  53  56 N17       29.89S

...EASTERN NEBRASKA...

CITY           SKY/WX    TMP DP  RH WIND       PRES   REMARKS
NORFOLK        CLOUDY    70  55  59 VRB3      29.91R
SO SIOUX CITY  CLOUDY    73  60  63 VRB3      29.87F
TEKAMAH        SUNNY     74  56  53 E5        29.87S
COLUMBUS       MOSUNNY   72  57  60 SE7       29.89S
ALBION         CLOUDY    68  55  63 SE5       29.92S
OMAHA EPPLEY   MOSUNNY   78  61  55 VRB3      29.86F
OFFUTT AFB     SUNNY     78  62  58 NE6       29.85F
MILLARD        SUNNY     76  56  50 NE3       29.86F
LINCOLN        CLOUDY    76  62  62 E6        29.86F
NEBRASKA CITY  SUNNY     76  65  69 SE7       29.86F
BEATRICE       SUNNY     77  66  68 SE8       29.84F
FALLS CITY     CLOUDY    77  67  71 SE10      29.84F

...NORTHERN KANSAS...

CITY           SKY/WX    TMP DP  RH WIND       PRES   REMARKS
GOODLAND       CLOUDY    67  50  54 E14       29.88F
HILL CITY      CLOUDY    72  58  61 E15       29.82F
NORTON         SUNNY     73  50  43 E12       29.85S
PHILLIPSBURG   SUNNY     73  57  56 E10G18    29.82F
SMITH CENTER   SUNNY     73  63  68 E18       29.82F
BELOIT         CLOUDY    75  70  83 E13       29.79F
HAYS           CLOUDY    61  57  88 E12       29.80F
RUSSELL        PTSUNNY   73  68  84 E14       29.77F
CONCORDIA      PTSUNNY   74  68  81 E9        29.80F
SALINA         CLOUDY    84  74  71 SE13      29.77F HX  91
TOPEKA         CLOUDY    73  69  87 E10       29.85F



USA.gov is the U.S. government's official web portal to all federal, state and local government web resources and services.